Maersk Iowa — KABL — position and weather

sailwx.info

Track history (hours):
 
Tides and Currents Weather Stations Pressure Air Temp Water Temp Dewpoint Dewpoint Depression Visibility Wind Speed Wind Dir Waves Ship Positions

Maersk Iowa

More information available from US FCC via Universal Licensing System and Coast Guard Vessel Documentation Center.

Last reported at 2014-Aug-31 09:33 UTC. Time now 2014-Aug-31 10:31 UTC.
Position N 40°32' W 071°04'.

Length 292 m; draft 12.5 m.

Type: Ship. MMSI: 367606000.

Date/timePositionNaut miles runAvg speedWind from/ knotsBaromVisibWave heightAir tempDewpointWater temp
2014-Aug-31 09:33N 40°32' W 071°04'1515.4
2014-Aug-31 08:33N 40°33' W 070°44'1515.3
2014-Aug-31 07:33N 40°33' W 070°24'1515.2
2014-Aug-31 06:33N 40°33' W 070°04'1322.6
2014-Aug-31 06:00N 40°30' W 069°48'4 9.9 010 / 61023.110.8 1.019.014.018.7
2014-Aug-31 05:33N 40°33' W 069°45'1515.0
2014-Aug-31 04:33N 40°34' W 069°25'1515.2
2014-Aug-31 03:33N 40°34' W 069°05'1615.9
2014-Aug-31 02:33N 40°35' W 068°44'1616.0
2014-Aug-31 01:33N 40°40' W 068°24'1616.5
2014-Aug-31 00:33N 40°46' W 068°04'1716.3
2014-Aug-30 23:30N 40°52' W 067°43'17815.5
2014-Aug-30 12:00N 41°54' W 064°00'9215.3 070 / 111026.0 5.4 1.020.010.922.5
2014-Aug-30 06:00N 42°30' W 062°06'44016.3 340 / 121024.310.8 2.517.113.424.1
2014-Aug-29 03:00N 45°30' W 052°48'5719.1 190 / 201001.2 2.2 2.019.019.019.0
2014-Aug-29 00:00N 45°48' W 051°30'24120.1 230 / 201005.2 5.4 2.018.016.318.3
2014-Aug-28 12:00N 46°54' W 045°54'12120.1 240 / 181010.210.8 1.018.014.616.4
2014-Aug-28 06:00N 47°18' W 043°00'63617.7 200 / 181016.010.8 2.515.011.316.0
2014-Aug-26 18:00N 51°00' W 027°48'43718.2 270 / 91005.010.8 1.017.013.517.0
2014-Aug-25 18:00N 55°18' W 018°00'21618.0 030 / 261004.0 5.4 2.020.013.018.0
2014-Aug-25 06:00N 57°06' W 012°24'10217.0 090 / 291004.0 5.4 3.015.011.314.8
2014-Aug-25 00:00N 57°54' W 009°36'10018.0 999 / 41012.010.8 0.513.0 9.111.0
2014-Aug-24 18:25N 58°36' W 006°43'1517.2
2014-Aug-24 17:34N 58°42' W 006°18'1717.0
2014-Aug-24 16:34N 58°42' W 005°45'5518.0
2014-Aug-24 13:31N 58°43' W 003°60'1818.0
2014-Aug-24 12:30N 58°43' W 003°24'1516.4
2014-Aug-24 11:34N 58°38' W 002°56'6416.1
2014-Aug-24 07:34N 57°54' W 001°28'1717.0
2014-Aug-24 06:33N 57°42' W 001°04'1817.0
2014-Aug-24 05:30N 57°30' W 000°39'29116.6
2014-Aug-23 12:00N 54°36' E 006°18'9911.7 280 / 191012.010.8 3.016.0 8.118.0
2014-Aug-23 03:33N 53°36' E 008°31'0 0.0
2014-Aug-23 02:33N 53°36' E 008°31'0 0.0
2014-Aug-23 01:33N 53°36' E 008°31'0 0.0
2014-Aug-23 00:33N 53°36' E 008°31'0 0.0
2014-Aug-22 23:33N 53°36' E 008°31'0 0.0
2014-Aug-22 22:33N 53°36' E 008°31'0 0.0
2014-Aug-22 21:33N 53°36' E 008°31'0 0.0
2014-Aug-22 20:33N 53°36' E 008°31'0 0.0
2014-Aug-22 19:33N 53°36' E 008°31'0 0.0
2014-Aug-22 18:30N 53°36' E 008°31'0 0.0
2014-Aug-22 17:33N 53°36' E 008°31'0 0.0
2014-Aug-22 16:33N 53°36' E 008°31'0 0.0
2014-Aug-22 15:33N 53°36' E 008°31'0 0.0
2014-Aug-22 14:33N 53°36' E 008°31'0 0.0
2014-Aug-22 13:33N 53°36' E 008°31'0 0.0
2014-Aug-22 12:33N 53°36' E 008°31'0 0.0
2014-Aug-22 11:33N 53°36' E 008°31'0 0.0
2014-Aug-22 10:33N 53°36' E 008°31'0 0.0
2014-Aug-22 09:33N 53°36' E 008°31'0 0.0
2014-Aug-22 08:33N 53°36' E 008°31'0 0.0
2014-Aug-22 07:33N 53°36' E 008°31'0 0.0
2014-Aug-22 06:33N 53°36' E 008°31'0 0.0
2014-Aug-22 05:33N 53°36' E 008°31'0 0.0
2014-Aug-22 04:33N 53°36' E 008°31'0 0.0
2014-Aug-22 03:33N 53°36' E 008°31'5 5.5
2014-Aug-22 02:33N 53°39' E 008°24'1312.9
2014-Aug-22 01:33N 53°48' E 008°08'1312.9
2014-Aug-22 00:33N 53°53' E 007°48'1913.9
2014-Aug-21 23:10N 53°52' E 007°15'2716.4
2014-Aug-21 21:33N 53°47' E 006°31'1615.9
2014-Aug-21 20:33N 53°42' E 006°05'1615.9
2014-Aug-21 19:33N 53°38' E 005°39'1616.6
2014-Aug-21 18:34N 53°33' E 005°13'1425.1
2014-Aug-21 18:00N 53°24' E 004°54'510.5 240 / 241012.0 5.4 2.020.010.918.6
2014-Aug-21 17:34N 53°26' E 004°47'10316.6
2014-Aug-21 11:22N 52°24' E 002°30'1917.1
2014-Aug-21 10:13N 52°12' E 002°06'1116.8
2014-Aug-21 09:34N 52°04' E 001°54'  
Track history (hours):
 
Tides and Currents Weather Stations Pressure Air Temp Water Temp Dewpoint Dewpoint Depression Visibility Wind Speed Wind Dir Waves Ship Positions

Maersk Iowa

More information available from US FCC via Universal Licensing System and Coast Guard Vessel Documentation Center.

Last reported at 2014-Aug-31 09:33 UTC. Time now 2014-Aug-31 10:31 UTC.
Position N 40°32' W 071°04'.

Length 292 m; draft 12.5 m.

Type: Ship. MMSI: 367606000.

Date/timePositionNaut miles runAvg speedWind from/ knotsBaromVisibWave heightAir tempDewpointWater temp
2014-Aug-31 09:33N 40°32' W 071°04'1515.4
2014-Aug-31 08:33N 40°33' W 070°44'1515.3
2014-Aug-31 07:33N 40°33' W 070°24'1515.2
2014-Aug-31 06:33N 40°33' W 070°04'1322.6
2014-Aug-31 06:00N 40°30' W 069°48'4 9.9 010 / 61023.110.8 1.019.014.018.7
2014-Aug-31 05:33N 40°33' W 069°45'1515.0
2014-Aug-31 04:33N 40°34' W 069°25'1515.2
2014-Aug-31 03:33N 40°34' W 069°05'1615.9
2014-Aug-31 02:33N 40°35' W 068°44'1616.0
2014-Aug-31 01:33N 40°40' W 068°24'1616.5
2014-Aug-31 00:33N 40°46' W 068°04'1716.3
2014-Aug-30 23:30N 40°52' W 067°43'17815.5
2014-Aug-30 12:00N 41°54' W 064°00'9215.3 070 / 111026.0 5.4 1.020.010.922.5
2014-Aug-30 06:00N 42°30' W 062°06'44016.3 340 / 121024.310.8 2.517.113.424.1
2014-Aug-29 03:00N 45°30' W 052°48'5719.1 190 / 201001.2 2.2 2.019.019.019.0
2014-Aug-29 00:00N 45°48' W 051°30'24120.1 230 / 201005.2 5.4 2.018.016.318.3
2014-Aug-28 12:00N 46°54' W 045°54'12120.1 240 / 181010.210.8 1.018.014.616.4
2014-Aug-28 06:00N 47°18' W 043°00'63617.7 200 / 181016.010.8 2.515.011.316.0
2014-Aug-26 18:00N 51°00' W 027°48'43718.2 270 / 91005.010.8 1.017.013.517.0
2014-Aug-25 18:00N 55°18' W 018°00'21618.0 030 / 261004.0 5.4 2.020.013.018.0
2014-Aug-25 06:00N 57°06' W 012°24'10217.0 090 / 291004.0 5.4 3.015.011.314.8
2014-Aug-25 00:00N 57°54' W 009°36'10018.0 999 / 41012.010.8 0.513.0 9.111.0
2014-Aug-24 18:25N 58°36' W 006°43'1517.2
2014-Aug-24 17:34N 58°42' W 006°18'1717.0
2014-Aug-24 16:34N 58°42' W 005°45'5518.0
2014-Aug-24 13:31N 58°43' W 003°60'1818.0
2014-Aug-24 12:30N 58°43' W 003°24'1516.4
2014-Aug-24 11:34N 58°38' W 002°56'6416.1
2014-Aug-24 07:34N 57°54' W 001°28'1717.0
2014-Aug-24 06:33N 57°42' W 001°04'1817.0
2014-Aug-24 05:30N 57°30' W 000°39'29116.6
2014-Aug-23 12:00N 54°36' E 006°18'9911.7 280 / 191012.010.8 3.016.0 8.118.0
2014-Aug-23 03:33N 53°36' E 008°31'0 0.0
2014-Aug-23 02:33N 53°36' E 008°31'0 0.0
2014-Aug-23 01:33N 53°36' E 008°31'0 0.0
2014-Aug-23 00:33N 53°36' E 008°31'0 0.0
2014-Aug-22 23:33N 53°36' E 008°31'0 0.0
2014-Aug-22 22:33N 53°36' E 008°31'0 0.0
2014-Aug-22 21:33N 53°36' E 008°31'0 0.0
2014-Aug-22 20:33N 53°36' E 008°31'0 0.0
2014-Aug-22 19:33N 53°36' E 008°31'0 0.0
2014-Aug-22 18:30N 53°36' E 008°31'0 0.0
2014-Aug-22 17:33N 53°36' E 008°31'0 0.0
2014-Aug-22 16:33N 53°36' E 008°31'0 0.0
2014-Aug-22 15:33N 53°36' E 008°31'0 0.0
2014-Aug-22 14:33N 53°36' E 008°31'0 0.0
2014-Aug-22 13:33N 53°36' E 008°31'0 0.0
2014-Aug-22 12:33N 53°36' E 008°31'0 0.0
2014-Aug-22 11:33N 53°36' E 008°31'0 0.0
2014-Aug-22 10:33N 53°36' E 008°31'0 0.0
2014-Aug-22 09:33N 53°36' E 008°31'0 0.0
2014-Aug-22 08:33N 53°36' E 008°31'0 0.0
2014-Aug-22 07:33N 53°36' E 008°31'0 0.0
2014-Aug-22 06:33N 53°36' E 008°31'0 0.0
2014-Aug-22 05:33N 53°36' E 008°31'0 0.0
2014-Aug-22 04:33N 53°36' E 008°31'0 0.0
2014-Aug-22 03:33N 53°36' E 008°31'5 5.5
2014-Aug-22 02:33N 53°39' E 008°24'1312.9
2014-Aug-22 01:33N 53°48' E 008°08'1312.9
2014-Aug-22 00:33N 53°53' E 007°48'1913.9
2014-Aug-21 23:10N 53°52' E 007°15'2716.4
2014-Aug-21 21:33N 53°47' E 006°31'1615.9
2014-Aug-21 20:33N 53°42' E 006°05'1615.9
2014-Aug-21 19:33N 53°38' E 005°39'1616.6
2014-Aug-21 18:34N 53°33' E 005°13'1425.1
2014-Aug-21 18:00N 53°24' E 004°54'510.5 240 / 241012.0 5.4 2.020.010.918.6
2014-Aug-21 17:34N 53°26' E 004°47'10316.6
2014-Aug-21 11:22N 52°24' E 002°30'1917.1
2014-Aug-21 10:13N 52°12' E 002°06'1116.8
2014-Aug-21 09:34N 52°04' E 001°54'  

Dump ship's entire track history